Miscellaneous Local Product
Issued by NWS Hastings, NE

Home | Current Version | Previous Version | Graphics & Text | Print | Product List | Glossary On
Versions: 1 2 3 4 5 6 7 8 9 10 11 12 13 14 15 16 17 18 19 20 21 22 23 24 25 26 27 28 29 30 31 32 33 34 35 36 37 38 39 40 41 42 43 44 45 46 47 48 49 50
000
AXUS43 KGID 260902
MISGRI

GID CWA HOURLY WEATHER ROUNDUP
NATIONAL WEATHER SERVICE HASTINGS NE
400 AM CDT THU MAR 26 2015

NOTE: "FAIR" INDICATES FEW OR NO CLOUDS BELOW 12,000 FEET WITH NO
SIGNIFICANT WEATHER AND/OR OBSTRUCTIONS TO VISIBILITY.

...SOUTH CENTRAL NEBRASKA...

CITY           SKY/WX    TMP DP  RH WIND       PRES   REMARKS
GRAND ISLAND   CLEAR     23  19  85 W8        30.23S WCI  14
HASTINGS       CLEAR     24  19  81 NW7       30.21F WCI  16
KEARNEY        CLEAR     21  16  79 W7        30.23F WCI  13
ORD            CLEAR     20  14  77 NW5       30.21F WCI  13
YORK           CLEAR     28  25  86 NW12      30.21F WCI  18
AURORA         CLEAR     27  23  87 NW8       30.21F WCI  18
LEXINGTON      CLEAR     21  17  85 NW5       30.24S WCI  14
HOLDREGE       CLEAR     24  19  81 W5        30.23F WCI  18
HEBRON         CLEAR     29  24  81 NW5       30.22R WCI  24

...NEBRASKA PANHANDLE...

CITY           SKY/WX    TMP DP  RH WIND       PRES   REMARKS
CHADRON        PTCLDY    24  19  81 W7        30.15F WCI  16
ALLIANCE       PTCLDY    20  15  81 CALM      30.17F
SCOTTSBLUFF    PTCLDY    24  21  88 N6        30.18F WCI  17
SIDNEY         CLOUDY    30  25  81 W6        30.19F WCI  24

...WESTERN AND NORTH CENTRAL NEBRASKA...

CITY           SKY/WX    TMP DP  RH WIND       PRES   REMARKS
VALENTINE      CLEAR     18  15  88 CALM      30.20F
AINSWORTH      CLEAR     22  19  86 W6        30.21F WCI  15
ONEILL         CLEAR     23  18  83 W3        30.22F
BROKEN BOW     CLEAR     16  14  92 N5        30.21F WCI   9
IMPERIAL         N/A     22  18  85 CALM      30.22F
NORTH PLATTE   CLEAR     20  15  81 CALM      30.22F
MCCOOK         PTCLDY    21  17  84 SW5       30.25F WCI  15

...EASTERN NEBRASKA...

CITY           SKY/WX    TMP DP  RH WIND       PRES   REMARKS
NORFOLK        CLEAR     27  21  78 W5        30.21F WCI  22
SO SIOUX CITY  CLEAR     25  19  78 NW7       30.20F WCI  17
TEKAMAH        CLEAR     28  22  78 W14       30.20F WCI  17
COLUMBUS       CLEAR     25  16  68 NW8       30.23S WCI  16
ALBION         CLEAR     23  20  87 N6        30.22S WCI  16
OMAHA EPPLEY   CLEAR     27  24  89 N8        30.19F WCI  19
MILLARD        CLEAR     31  25  77 W5        30.19F WCI  26
LINCOLN        CLEAR     28  23  81 N6        30.21S WCI  22
NEBRASKA CITY  PTCLDY    32  26  78 N7        30.18R WCI  26
BEATRICE       CLEAR     28  25  86 N9        30.19S WCI  20
FALLS CITY     CLEAR     32  28  85 N7        30.16F WCI  26

...NORTHERN KANSAS...

CITY           SKY/WX    TMP DP  RH WIND       PRES   REMARKS
GOODLAND       PTCLDY    27  24  89 W3        30.22F
HILL CITY      CLEAR     24  21  88 CALM      30.26S
NORTON         SUNNY     25  19  80 NW8       30.24F WCI  16
PHILLIPSBURG   CLEAR     28  25  86 W8        30.26S WCI  20
SMITH CENTER   CLEAR     25  23  93 NW7       30.25S WCI  17
BELOIT         CLEAR     30  25  80 NW5       30.22S WCI  25
HAYS           CLEAR     32  19  59 NW7       30.24S WCI  26
RUSSELL        CLEAR     29  26  89 NW7       30.22S WCI  22
CONCORDIA      CLEAR     31  26  82 NW8       30.20F WCI  23
SALINA         MOCLDY    34  29  82 NW7       30.22S WCI  28
TOPEKA         PTCLDY    36  31  82 NW6       30.18R WCI  31



USA.gov is the U.S. government's official web portal to all federal, state and local government web resources and services.